Observations
| Time | Sensor | AQI | SAQ | Temp °C | Hum % | Pres Pa | CO μg/m³ | H₂S μg/m³ | NO μg/m³ | NO₂ μg/m³ | O₃ μg/m³ | SO₂ μg/m³ | CO₂e PPM | VOC PPM | PM1 μg/m³ | PM2.5 μg/m³ | PM4 μg/m³ | PM10 μg/m³ | TPS µm |
|---|---|---|---|---|---|---|---|---|---|---|---|---|---|---|---|---|---|---|---|
| Wednesday 12 August 2026 | |||||||||||||||||||
| 22:24 | Trim Patrick St | 3 | 24.6 | 53 | 69,338 | 0 | 19.5 | 0.94 | 42.64 | 52.1 | 9.42 | 6.29 | 10.77 | 11.84 | |||||
| 22:22 | Trim Patrick St | 3 | 24.7 | 53 | 69,353 | 0 | 14.72 | 0.88 | 23.19 | 57 | 9.72 | 3.71 | 9.25 | 10.18 | |||||
| 22:21 | Trim Market St | 3 | 25.3 | 51 | 55,725 | 0 | 1.21 | 0.87 | 22.6 | 61.68 | 0 | 2.14 | 4.47 | 6.79 | |||||
| 22:21 | Trim Patrick St | 3 | 24.7 | 53 | 69,349 | 0 | 14.61 | 0.87 | 21.18 | 54.14 | 9.91 | 3.71 | 8.47 | 9.32 | |||||
| 22:20 | Trim Market St | 3 | 25.3 | 51 | 55,734 | 0 | 0.36 | 0.87 | 21.32 | 63.25 | 0 | 2.14 | 4.47 | 5.3 | |||||
| 22:20 | Trim Patrick St | 3 | 24.7 | 53 | 69,347 | 0 | 17.08 | 0.88 | 32.44 | 49.1 | 8.99 | 3.71 | 8.47 | 9.32 | |||||
| 22:19 | Trim Patrick St | 3 | 24.8 | 52 | 69,339 | 0 | 19.07 | 0.89 | 35.27 | 55.9 | 9.91 | 5.43 | 10.81 | 11.89 | |||||
| 22:18 | Trim Patrick St | 3 | 24.8 | 51 | 69,328 | 0 | 15.01 | 0.93 | 27.24 | 52.35 | 9.87 | 3.71 | 9.37 | 10.31 | |||||
| 22:17 | Trim Market St | 3 | 25.4 | 51 | 55,727 | 0 | 0.57 | 0.85 | 19.04 | 62.38 | 0 | 2.14 | 4.99 | 6.04 | |||||
| 22:17 | Trim Patrick St | 3 | 24.8 | 53 | 69,316 | 0 | 15.33 | 0.88 | 25.61 | 53.21 | 9.95 | 3.71 | 9.25 | 10.17 | |||||
| 22:16 | Trim Patrick St | 3 | 24.9 | 53 | 69,296 | 0 | 16.46 | 0.89 | 26.68 | 52.91 | 9.89 | 4.57 | 10.03 | 11.03 | |||||
| 22:15 | Trim Patrick St | 3 | 24.9 | 53 | 69,300 | 0 | 19.52 | 0.87 | 32.35 | 50.36 | 10.32 | 4.57 | 9.26 | 10.19 | |||||
| 22:14 | Trim Market St | 3 | 25.5 | 50 | 55,706 | 0 | 3.12 | 0.83 | 24.31 | 68.98 | 0 | 2.85 | 5.01 | 6.04 | |||||
| 22:14 | Trim Patrick St | 3 | 24.9 | 52 | 69,306 | 0 | 18.03 | 0.9 | 41.09 | 45.04 | 9.61 | 5.43 | 10.09 | 11.1 | |||||
| 22:13 | Trim Patrick St | 3 | 25 | 53 | 69,284 | 0 | 17.74 | 0.85 | 35.95 | 47.71 | 9.95 | 3.71 | 8.5 | 9.35 | |||||
| 22:12 | Trim Market St | 3 | 25.5 | 50 | 55,720 | 0 | 0.94 | 0.84 | 20.08 | 63.7 | 0 | 0.71 | 3.47 | 3.81 | |||||
| 22:12 | Trim Patrick St | 3 | 25 | 53 | 69,286 | 0 | 17.71 | 0.86 | 44.3 | 43.04 | 10.11 | 3.71 | 9.26 | 10.19 | |||||
| 22:11 | Trim Market St | 3 | 25.6 | 50 | 55,728 | 0 | 3.49 | 0.84 | 24.51 | 67.96 | 0 | 2.14 | 4.51 | 6.78 | |||||
| 22:11 | Trim Patrick St | 3 | 25 | 52 | 69,292 | 0 | 16.65 | 0.87 | 25.4 | 53.8 | 10.37 | 3.71 | 9.29 | 10.22 | |||||
| 22:10 | Trim Patrick St | 3 | 25.1 | 52 | 69,300 | 0 | 15.34 | 0.85 | 35.45 | 48.42 | 10.01 | 4.57 | 9.29 | 10.22 | |||||